Find Starlink 34913

NORAD ID: 65369 Int'l Des: 2025-190 Owner: SPXS Country: US Constellation: starlink operational
LEOCIRCULAR

Live Position

Loading 3D Globe...

About Starlink 34913

Description loading...

Upcoming Passes

Passes for default location (London). Set your location on the main map for personalized predictions.

Altitude History

Loading altitude history...

Two-Line Element Set

1 65369U 25190U 26105.39058258 .00008194 00000-0 28842-3 0 9999
2 65369 53.1589 357.7473 0000900 73.7456 286.3644 15.30203288 35372
Epoch: Apr 15, 2026 • Age: 33 hours

Current Status

Altitude 492.3 km
Velocity 7.62 km/s
Sub-Earth Point -48.49°S, 179.34°E
Launch Date Aug 28, 2025
Age 0.6 years
Type internet

Technical Details

Classification Payload
Mass 575.00 kg
Dry Mass 530.00 kg
Total Mass 575.00 kg
Length 0.30 m
Diameter 4.10 m
Span 29.00 m
Shape Box + pan
Manufacturer SPXS
Bus Type Starlink V2MO
Phase Status In Orbit
Owner/State SPXS/US

Most Searched